Location: Camp Hill
(41.1865°N, 74.0538°W)
Time: 00:05:34
(UTC+00:00)

Daily predictions for brighter satellites

Satellite Brightness Start Highest point End
(mag) Time Altitude Azimuth Time Altitude Azimuth Time Altitude Azimuth
Cosmos 1975 Rocket 2.9 00:00:38 10° N 00:04:59 86° E 00:09:18 10° S
Cosmos 2084 Rocket 3.5 00:01:46 10° NW 00:06:14 87° SW 00:10:13 13° SSE
Cosmos 1707 2.9 00:04:44 10° N 00:08:27 46° E 00:11:20 15° SSE
Cosmos 1072 Rocket 4.5 00:02:28 10° S 00:08:35 63° E 00:14:49 10° NNE
SJ-6B 3.7 00:08:41 24° E 00:09:42 27° ENE 00:12:55 10° NNE
Resurs 01 Rocket 3.6 00:12:00 13° ENE 00:12:00 13° ENE 00:13:49 10° NE
Nadezhda 4 Rocket 4.4 00:08:43 10° N 00:14:25 39° ENE 00:18:31 18° SE
Abrixas rocket 4.0 00:12:28 10° WNW 00:14:42 20° N 00:16:22 13° NE
Cosmos 2034 Rocket 4.3 00:08:54 10° SSE 00:14:54 46° E 00:20:55 10° NNE
Sich 1 Rocket 3.6 00:13:06 10° S 00:17:34 84° W 00:22:07 10° N
ISS -3.8 00:14:50 10° SW 00:18:12 82° NW 00:20:13 22° NE
H-2A R/B 2.2 00:15:56 10° S 00:20:50 71° WSW 00:25:53 10° NNW
In-Cosmos 22 4.2 00:17:16 10° N 00:22:27 54° ENE 00:26:19 18° SSE
ARGOS 3.1 00:19:18 10° SSE 00:24:38 88° WSW 00:30:03 10° NNW
Cosmos 1174 4.5 00:22:45 10° SSW 00:27:20 58° ESE 00:33:09 10° NE
CZ-2C R/B 2.7 00:25:24 10° NNE 00:30:54 62° E 00:36:26 10° S
SL-08 RB Rocket 3.6 00:27:10 15° SSE 00:31:03 79° ENE 00:35:37 10° N
MOS 1 4.3 00:31:18 21° SSE 00:35:06 63° ENE 00:40:45 10° N
Milstar 3 Cent rocket 3.9 00:33:24 10° SSW 00:36:45 15° S 00:37:15 15° SSE
Okean 2 Rocket 3.1 00:32:51 10° S 00:37:21 81° W 00:41:52 10° N
Lacrosse 5 rocket 4.2 00:35:41 10° NW 00:37:32 12° NNW 00:39:25 10° NNE
Cosmos 1844 3.9 00:32:38 10° S 00:38:01 44° ESE 00:43:22 10° NE
Okean 1 Rocket 4.3 00:42:46 27° NE 00:42:46 27° NE 00:45:20 10° NNE
ATLAS 2AS CENTAUR R/B 3.8 00:35:50 10° SSE 00:46:15 20° ENE 00:48:57 10° NE
Cosmos 2263 Rocket 4.1 00:37:34 10° WSW 00:42:25 30° NW 00:47:19 10° N
DELTA 2 R/B (1) 4.2 00:39:38 10° W 00:44:53 44° SSW 00:46:52 32° SSE
Cosmos 1634 Rocket 4.4 00:48:15 36° E 00:48:23 36° E 00:53:57 10° NNE
Cosmos 1844 Rocket 2.5 00:43:43 10° SSW 00:49:13 69° ESE 00:54:47 10° NNE
Cosmos 1300 Rocket 4.1 00:45:07 10° SSW 00:49:27 60° W 00:53:50 10° N
Resurs 1-3 4.0 00:50:09 44° ENE 00:50:09 44° ENE 00:54:06 10° N
Cosmos 2285 Rocket 4.0 00:47:15 10° S 00:53:19 54° ESE 00:59:28 10° NNE
Ariane Rocket 3.0 00:50:37 23° S 00:53:52 77° WSW 00:58:58 10° NNW
USA 186 2.7 00:54:52 40° WSW 00:55:13 42° W 00:58:17 10° NNW
CENTAUR R/B 3.6 00:49:15 10° NNW 00:56:59 47° NE 01:00:06 35° E
Exosat Rocket 3.5 00:55:38 10° SSW 01:01:34 70° ESE 01:06:34 10° NNE
ATLAS 3B R/B 4.2 00:57:39 10° NNW 01:02:36 20° NNE 01:04:32 18° NE
Meteor 1-15 Rocket 4.1 00:58:37 10° S 01:04:13 84° E 01:09:56 10° N
Cosmos 2298 Rocket 4.4 00:59:11 10° SSW 01:04:28 66° WNW 01:09:48 10° NNE
USA 238 DEB 3.9 00:58:30 10° NNW 01:05:44 67° NE 01:07:59 46° ESE
USA 238 3.9 00:58:36 10° NNW 01:05:50 66° NE 01:08:04 46° ESE
Cosmos 494 Rocket 4.2 01:00:43 10° N 01:05:42 50° ENE 01:05:42 50° ENE
SPOT 3 Rocket 3.5 01:05:38 61° E 01:05:52 62° ENE 01:10:57 10° N
Cosmos 1536 Rocket 3.8 01:04:38 10° NNW 01:09:03 66° W 01:09:59 51° SSW
MetOp-A 4.3 01:07:54 34° S 01:10:15 72° WSW 01:15:37 10° NNW
OBJECT-B 2.9 01:14:10 23° NNW 01:14:10 23° NNW 01:15:32 10° NNW
Cosmos 1092 Rocket 3.8 01:07:02 10° N 01:13:12 70° E 01:14:15 59° SE
Cosmos 1833 Rocket 4.5 01:09:45 10° N 01:12:50 17° NE 01:12:50 17° NE
Cosmos 2195 Rocket 4.4 01:10:03 10° N 01:16:17 66° E 01:16:53 62° ESE
Cosmos 1867 4.4 01:14:32 10° NW 01:19:43 45° WSW 01:21:23 35° SSW
Meteor 2-13 Rocket 4.3 01:13:55 10° N 01:20:08 83° E 01:21:15 62° SSE
Cosmos 2026 Rocket 4.0 01:14:09 10° N 01:20:27 61° E 01:20:38 61° E
CZ-2C R/B 3.7 01:21:38 10° WSW 01:22:04 12° WSW 01:22:04 12° WSW
Cosmos 1674 4.3 01:26:37 10° NNW 01:29:01 34° NW 01:29:01 34° NW
Cosmos 1428 Rocket 4.4 01:26:24 10° N 01:32:24 70° ENE 01:32:24 70° ENE
NOSS 3-2 (A) 4.1 01:26:16 10° NW 01:34:00 82° WSW 01:36:11 55° SSE
Meteor 2-5 Rocket 3.7 01:32:45 10° N 01:38:03 79° NNW 01:38:03 79° NNW
BREEZE-M DEB (TANK) 4.0 01:36:57 10° WNW 01:41:06 64° SSW 01:42:24 56° SSE
Cosmos 1125 Rocket 4.4 01:39:36 10° SW 01:44:42 47° WNW 01:49:51 10° N
Resurs 01 Rocket 3.1 01:49:35 34° NNW 01:49:35 34° NNW 01:52:12 10° NNW
USA 234 3.6 01:42:44 10° NE 01:49:09 61° NW 01:55:34 10° WSW
Cosmos 2082 Rocket 4.2 01:49:49 10° N 01:52:04 18° NNE 01:52:04 18° NNE
ISS -0.3 01:52:53 10° WNW 01:53:14 12° WNW 01:53:14 12° WNW
COSMOS 2406 4.4 01:57:05 10° NNW 02:00:31 34° N 02:00:31 34° N
Meteor 1-24 Rocket 4.4 01:58:53 10° NNW 02:02:58 49° NW 02:02:58 49° NW
NOSS 3-2 (C) 4.0 02:00:34 10° NW 02:08:18 79° WSW 02:08:32 78° SW
Lacrosse 5 rocket 4.5 02:17:07 10° N 02:17:41 11° N 02:17:41 11° N
ATLAS 2AS CENTAUR R/B 3.2 02:24:57 10° SW 02:33:18 66° NNW 02:40:45 10° NNE
CENTAUR R/B 3.7 02:40:00 10° NW 02:47:17 51° W 02:47:17 51° W
ATLAS 3B R/B 3.7 02:47:32 10° NNW 02:51:46 41° NNW 02:51:46 41° NNW
ADEOS II 4.4 06:39:28 10° NNE 06:41:15 20° NE 06:41:15 20° NE
ATLAS 5 CENTAUR R/B 4.5 07:12:31 13° N 07:12:31 13° N 07:13:09 10° NNE
CZ-2D R/B 4.3 07:04:30 10° N 07:06:00 19° N 07:06:00 19° N
Resurs 1-4 Rocket 4.3 07:17:46 10° N 07:19:11 18° N 07:19:11 18° N
Cosmos 1697 Rocket 3.4 07:37:49 50° NE 07:37:49 50° NE 07:41:57 10° NNE
Cosmos 1980 Rocket 3.1 07:40:43 42° ESE 07:40:43 42° ESE 07:45:57 10° NE
Spot 4 Rocket 4.3 07:56:13 10° NNE 08:01:11 64° E 08:01:11 64° E
USA 267 3.5 07:57:17 10° NE 08:03:38 54° NNW 08:04:18 52° NW
Cosmos 1515 Rocket 4.5 08:06:38 47° NNE 08:06:38 47° NNE 08:09:55 10° NNE
CZ-2C R/B 4.5 08:02:13 10° NNE 08:04:41 31° ENE 08:04:41 31° ENE
Lacrosse 5 2.4 08:09:35 52° N 08:09:35 52° N 08:13:47 10° NE
Cosmos 1821 Rocket 3.8 08:03:55 10° N 08:10:11 75° W 08:10:11 75° W
Cosmos 1777 Rocket 4.0 08:07:01 10° NNW 08:11:44 72° N 08:11:44 72° N
Cosmos 921 Rocket 4.2 08:18:19 32° SE 08:19:06 35° E 08:22:55 10° NE
Cosmos 44 3.4 08:20:09 63° E 08:20:09 63° E 08:24:23 10° NE
CZ-4C R/B 4.2 08:23:39 44° ENE 08:23:39 44° ENE 08:27:03 10° N
ADEOS II 3.6 08:19:27 10° N 08:22:10 23° NW 08:22:10 23° NW
Cosmos 2228 Rocket 3.7 08:23:48 44° SE 08:24:44 53° E 08:29:02 10° NNE
Cosmos 1934 Rocket 3.9 08:18:45 10° N 08:24:50 83° E 08:30:55 10° S
Cosmos 1933 Rocket 3.8 08:21:44 10° N 08:25:24 62° N 08:25:24 62° N
Nadezhda 3 Rocket 4.2 08:32:55 45° WNW 08:32:55 45° WNW 08:38:44 10° N
Cosmos 2278 3.7 08:34:00 58° WSW 08:34:47 65° WNW 08:40:28 10° NNE
ADEOS Rocket 4.4 08:28:25 10° SE 08:34:49 42° ENE 08:40:38 10° N
IDEFIX/ARIANE 42P 2.6 08:31:29 10° N 08:36:39 55° WNW 08:36:52 55° W
Meteor 1-4 Rocket 4.4 08:35:16 18° SE 08:37:05 28° E 08:40:06 10° NNE
USA 234 3.2 08:30:42 10° SE 08:37:14 89° NE 08:43:48 10° NW
X-37B 2.2 08:38:14 33° NNE 08:38:14 33° NNE 08:40:33 10° ENE
MSX 3.7 08:33:45 10° N 08:39:33 78° WNW 08:41:47 39° SSW
Timation 1 Rocket 4.2 08:34:25 10° NNW 08:40:28 86° WSW 08:46:28 10° SSE
Cosmos 2369 4.3 08:42:33 38° WNW 08:42:56 38° WNW 08:48:17 10° N
ARIANE 5 R/B 3.3 08:39:04 10° N 08:43:09 34° NW 08:43:09 34° NW
Cosmos 1869 Rocket 4.4 08:40:52 10° N 08:45:07 50° E 08:49:19 10° SSE
CZ-3B R/B 3.8 08:44:41 18° NNW 08:46:07 22° N 08:52:08 10° NE
Cosmos 389 Rocket 3.9 08:47:50 28° NNW 08:47:50 28° NNW 08:49:48 10° N
USA 305 3.9 08:47:19 32° NW 08:47:35 32° NNW 08:51:26 10° NE
Cosmos 1605 Rocket 4.1 08:41:40 10° N 08:48:06 82° E 08:54:30 10° S
Cosmos 1535 Rocket 4.4 08:42:38 10° NNW 08:48:59 68° W 08:55:18 10° S
USA 306 4.0 08:51:15 30° NW 08:51:42 31° NNW 08:55:30 10° NE
ERS-2 2.7 08:52:54 10° SSE 08:56:30 58° ENE 09:00:06 10° N
SJ 16-02 1.8 08:55:38 10° N 08:59:59 61° ENE 09:04:20 10° SSE
PSLV R/B 3.4 08:58:22 10° NNE 09:02:35 89° WNW 09:05:14 22° SSW
H-2A R/B 2.0 08:58:36 10° S 09:02:53 64° WSW 09:07:18 10° NNW
Cosmos 1763 Rocket 4.1 08:59:32 10° S 09:04:44 58° ESE 09:09:57 10° NNE
ASTEX 1 4.4 09:09:44 10° NNW 09:13:52 27° WNW 09:14:18 26° W
Cosmos 1812 2.7 09:12:50 31° SW 09:14:25 57° W 09:18:13 10° N
Cosmos 2360 Rocket 4.0 09:09:51 10° SSE 09:14:43 30° ESE 09:19:36 10° NE
CZ-2C R/B 2.4 09:12:17 10° N 09:17:24 71° WNW 09:22:33 10° SSW
BREEZE-M DEB (TANK) 3.6 09:17:25 27° WNW 09:18:41 41° N 09:24:53 10° ENE
Cosmos 1727 Rocket 4.0 09:12:42 10° S 09:19:04 84° W 09:25:27 10° N
BREEZE-M DEB (TANK) 3.0 09:13:56 22° WSW 09:19:18 83° SSE 09:22:32 10° ENE
Cosmos 1697 Rocket 4.2 09:19:35 17° WNW 09:20:55 18° NW 09:24:43 10° N
SL-8 R/B 4.0 09:17:58 15° WNW 09:21:52 67° NNE 09:26:37 10° ESE
Cosmos 1500 3.4 09:18:39 10° NNW 09:22:19 44° W 09:25:56 10° SSW
ERBS 2.3 09:21:44 37° WSW 09:22:51 64° NW 09:26:13 10° NE
PAYLOAD A 3.9 09:18:32 10° N 09:23:06 52° WNW 09:26:52 15° SW
SL-4 R/B 3.0 09:19:51 17° SSW 09:23:11 49° SE 09:27:48 10° ENE
Cosmos 1980 Rocket 3.2 09:22:31 23° W 09:24:45 29° NW 09:29:41 10° N
CZ-4B R/B 1.5 09:23:14 10° SSE 09:26:20 68° ENE 09:29:30 10° N
Cosmos 1666 2.6 09:24:24 10° N 09:28:15 89° E 09:32:02 10° S
Landsat 5 4.3 09:24:56 10° SSW 09:28:59 33° W 09:33:04 10° NNW
Cosmos 990 Rocket 4.0 09:23:49 10° NNW 09:29:02 85° ENE 09:34:15 10° SSE
Cosmos 468 Rocket 4.0 09:24:24 10° SSW 09:29:42 74° WNW 09:35:00 10° NNE
BREEZE M DEB (TANK) 3.4 09:17:27 10° WNW 09:29:55 78° SW 09:33:41 10° SE
Cosmos 2322 Rocket 2.3 09:24:21 10° SSW 09:30:01 78° ESE 09:35:43 10° NNE
FENGYUN 3A 4.1 09:26:11 10° NNE 09:31:33 65° ESE 09:36:54 10° S
Meteor 1-10 Rocket 4.4 09:26:21 10° SSW 09:31:57 55° WNW 09:37:43 10° N
Cosmos 2263 Rocket 2.2 09:29:54 10° NNW 09:35:30 64° WSW 09:41:05 10° S
Cosmos 540 Rocket 4.1 09:32:21 10° S 09:37:23 57° ESE 09:42:28 10° NNE
SL-16 R/B 2.2 09:32:13 10° SSW 09:37:51 75° WNW 09:43:33 10° NNE
Cosmos 1459 Rocket 4.1 09:37:53 10° N 09:44:01 81° E 09:50:03 10° S
Cosmos 2227 4.4 09:42:01 10° NW 09:47:23 46° WSW 09:52:43 10° S
deb Chang Zheng 4 3.6 09:44:30 10° N 09:48:44 61° WNW 09:52:56 10° SSW
NOSS 3-3 (C) 4.5 09:45:10 14° WSW 09:49:41 40° NW 09:55:45 10° NNE
CZ-4B R/B 3.8 09:46:27 10° NNE 09:50:01 46° E 09:53:28 10° S
CZ-4B R/B 4.1 09:46:02 10° NNE 09:50:22 89° E 09:54:49 10° SSW
SAR-Lupe-4 3.5 09:48:57 10° S 09:52:30 63° WSW 09:56:05 10° NNW
Lacrosse 5 3.7 09:49:09 10° WNW 09:52:40 18° NNW 09:56:12 10° NNE
Cosmos 1707 Rocket 4.0 09:52:42 10° SSW 09:56:46 40° WNW 10:00:52 10° N
Cosmos 921 Rocket 4.4 09:55:09 13° W 09:57:29 19° WNW 10:00:28 10° NNW
Cosmos 1898 Rocket 3.6 09:53:04 10° NNW 09:58:14 58° WSW 10:03:24 10° S
Cosmos 1743 3.5 09:57:35 10° N 10:01:20 56° E 10:05:05 10° SSE
Okean 1 4.3 09:58:18 10° S 10:02:14 54° E 10:06:12 10° NNE
Cosmos 2208 Rocket 4.1 09:59:25 10° SSW 10:04:41 83° ESE 10:09:55 10° NNE
SAR-Lupe-1 4.3 10:01:24 10° S 10:04:48 44° W 10:08:16 10° NNW
PSLV R/B 4.1 10:01:11 10° SSE 10:05:12 76° ENE 10:09:17 10° N
Cosmos 2219 Rocket 4.4 10:01:38 10° SSE 10:06:25 29° ESE 10:11:14 10° NE
ATLAS 2AS CENTAUR R/B 3.4 09:59:23 10° NNW 10:06:48 61° NE 10:13:34 10° SE
Cosmos 1689 Rocket 2.0 10:07:25 10° S 10:10:21 68° WSW 10:13:19 10° NNW
Cosmos 858 Rocket 4.5 10:05:40 10° NNW 10:10:48 63° WSW 10:15:55 10° S
ADEOS 4.0 10:06:58 10° N 10:11:51 41° WNW 10:16:42 10° SW
Meteor 1-4 Rocket 4.3 10:10:09 10° WSW 10:12:10 15° WNW 10:14:12 10° NW
USA 281 4.4 10:07:18 10° NE 10:13:36 47° ESE 10:19:51 10° S
PKM 3.9 10:10:31 10° NW 10:14:02 89° SW 10:18:34 10° SE
SKYMED 2 3.6 10:09:46 10° SSE 10:14:06 90° ESE 10:18:28 10° NNW
Cosmos 372 Rocket 4.5 10:09:14 10° NNW 10:14:22 66° ENE 10:19:26 10° SSE
X-37B 1.0 10:11:16 10° WNW 10:14:26 61° NNE 10:17:36 10° E
Cosmos 2173 Rocket 4.1 10:08:16 10° NNW 10:14:27 58° W 10:20:39 10° S
Cosmos 2333 Rocket 4.0 10:09:12 10° S 10:14:27 38° ESE 10:19:44 10° NE
Okean 1-7 4.4 10:11:09 10° SSE 10:15:12 43° E 10:19:14 10° NNE
Cosmos 1536 3.5 10:12:12 10° NNW 10:15:53 34° W 10:19:33 10° SSW
